Regional Weather Roundup
Issued by NWS

Home | Current Version | Previous Version | Text Only | Print | Product List | Glossary On
Versions: 1 2 3 4 5 6 7 8 9 10 11 12 13 14 15 16 17 18 19 20 21 22 23 24 25 26 27 28 29 30 31 32 33 34 35 36 37 38 39 40 41 42 43 44 45 46 47 48 49 50
560
ASUS44 KLIX 160010
RWRLA
LOUISIANA WEATHER ROUNDUP
NATIONAL WEATHER SERVICE NEW ORLEANS LA
700 PM CDT TUE APR 15 2014

NOTE: "FAIR" INDICATES FEW OR NO CLOUDS BELOW 12,000 FEET WITH NO
      SIGNIFICANT WEATHER AND/OR OBSTRUCTIONS TO VISIBILITY.
      SKY/WX - SKY CONDITION AND SIGNIFICANT WEATHER.
      TMP - AIR TEMPERATURE.    DP   - DEWPOINT TEMPERATURE.
      RH  - RELATIVE HUMIDITY.  PRES - PRESSURE.
      HX  - HEAT INDEX.         WCI  - WIND CHILL INDEX.

*  THESE STATIONS ARE NOT NWS OR FAA STATIONS AND ARE NOT UNDER
   NWS QUALITY CONTROL.

LAZ040-048-061>063-065-066-069-160100-
SOUTHEAST LOUISIANA

CITY           SKY/WX    TMP DP  RH WIND       PRES   REMARKS
N.O. AUDUBON     N/A     58  32  37 MISG        N/A
6HR MIN TEMP:  58; 6HR MAX TEMP:  64;

N.O. INTL ARPT MOCLDY    58  29  33 N14       30.12R
6HR MIN TEMP:  56; 6HR MAX TEMP:  61;

N.O. LAKEFRONT PTCLDY    59  32  36 N20G25    30.12R
6HR MIN TEMP:  56; 6HR MAX TEMP:  61;

N.O. DOWNTOWN* FAIR      61  28  29 NW8       30.11S
6HR MIN TEMP:  55; 6HR MAX TEMP:  63;

SLIDELL        PTCLDY    57  29  34 N8        30.12R
6HR MIN TEMP:  56; 6HR MAX TEMP:  62;

BATON ROUGE    CLEAR     57  28  33 N8        30.16R
6HR MIN TEMP:  57; 6HR MAX TEMP:  62;

BOOTHVILLE     PTCLDY    58  36  43 N12G18    30.10R
6HR MIN TEMP:  52; 6HR MAX TEMP:  60;

BELLE CHASSE   MOCLDY    58  29  33 N5        30.10R
6HR MIN TEMP:  55; 6HR MAX TEMP:  61;

BOGALUSA*        N/A     56  31  38 NW10      30.14R
6HR MIN TEMP:  56; 6HR MAX TEMP:  61;

GALLIANO*      PTCLDY    59  33  37 NW15      30.10F
6HR MIN TEMP:  56; 6HR MAX TEMP:  62;

NEW ROADS*     FAIR      54  29  38 N10G20    30.18S
6HR MIN TEMP:  54; 6HR MAX TEMP:  57;

GONZALES*      FAIR      57  30  36 NW10      30.14R
6HR MIN TEMP:  55; 6HR MAX TEMP:  61;

HAMMOND*       CLEAR     57  27  30 N12       30.15S
HOUMA*         PTCLDY    59  28  31 N9        30.11S
PORT FOURCHON* CLEAR     59  32  36 N15       30.12S

$$

LAZ041-044-053-054-160100-
SOUTHWEST LOUISIANA

CITY           SKY/WX    TMP DP  RH WIND       PRES   REMARKS
LAKE CHARLES   CLEAR     60  30  32 N12       30.16S
6HR MIN TEMP:  58; 6HR MAX TEMP:  63;

LAFAYETTE      CLEAR     56  27  32 N16       30.17S
6HR MIN TEMP:  56; 6HR MAX TEMP:  60;

PATTERSON      PTCLDY    55  32  41 N14G20    30.16S
6HR MIN TEMP:  55; 6HR MAX TEMP:  63;

SALT POINT       N/A     59  32  36 VRB7      30.14R
6HR MIN TEMP:  59; 6HR MAX TEMP:  64;

NEW IBERIA     CLEAR     56  29  35 N17G26    30.17R
6HR MIN TEMP:  56; 6HR MAX TEMP:  61;

CHENAULT AIRPK CLEAR     59  28  31 N9        30.18S

$$

LAZ027-028-160100-
CENTRAL LOUISIANA

CITY           SKY/WX    TMP DP  RH WIND       PRES   REMARKS
FORT POLK      CLEAR     57  30  35 N6        30.17S
6HR MIN TEMP:  54; 6HR MAX TEMP:  59;

ALEXANDRIA INT CLEAR     57  31  37 N7        30.17R
6HR MIN TEMP:  55; 6HR MAX TEMP:  61;

ALEXANDRIA     CLEAR     58  30  34 VRB3      30.18R
6HR MIN TEMP:  57; 6HR MAX TEMP:  62;


$$

LAZ001-002-160100-
NORTHWEST LOUISIANA

CITY           SKY/WX    TMP DP  RH WIND       PRES   REMARKS
SHREVEPORT     CLEAR     58  30  34 CALM      30.17R
6HR MIN TEMP:  56; 6HR MAX TEMP:  61;

BARKSDALE AFB  CLEAR     58  26  29 N5        30.17S
6HR MIN TEMP:  55; 6HR MAX TEMP:  60;

DTN SHREVEPORT CLEAR     58  28  32 CALM      30.17S
6HR MIN TEMP:  54; 6HR MAX TEMP:  60;


$$

LAZ014-016-160100-
NORTHEAST LOUISIANA

CITY           SKY/WX    TMP DP  RH WIND       PRES   REMARKS
MONROE         CLEAR     55  30  38 N9        30.19S
6HR MIN TEMP:  53; 6HR MAX TEMP:  58;

TALLULAH       CLEAR     52  31  44 N10       30.21R
6HR MIN TEMP:  50; 6HR MAX TEMP:  54;


$$




USA.gov is the U.S. government's official web portal to all federal, state and local government web resources and services.